Alvadore, OR

3:45 PM PST on February 19, 2017 (GMT -0800)
Mahlon Sweet

Weather History for KEUG - January, 2014

Change the Weather History Date:

Sunday, January 5, 2014

  Actual Average Record
Temperature  
Mean Temperature 31 °F 40 °F  
Max Temperature 38 °F 46 °F 67 °F (1914)
Min Temperature 24 °F 34 °F 12 °F (2017)
Degree Days  
Heating Degree Days 34 25  
Month to date heating degree days 143 126  
Since 1 July heating degree days 2289 2083  
Cooling Degree Days 0 0  
Month to date cooling degree days 0 0  
Year to date cooling degree days 0 0  
Moisture  
Dew Point 28 °F    
Average Humidity 91    
Maximum Humidity 100    
Minimum Humidity 82    
Precipitation  
Precipitation 0.00 in 0.24 in 3.08 in (1978)
Month to date precipitation 0.04 1.20  
Year to date precipitation 0.04 1.20  
Sea Level Pressure  
Sea Level Pressure 30.35 in    
Wind  
Wind Speed 3 mph (ESE)    
Max Wind Speed 10 mph    
Max Gust Speed 12 mph    
Visibility 3 miles    
Events Fog    
T = Trace of Precipitation, MM = Missing Value Source: NWS Daily Summary

Daily Weather History Graph

Daily Weather History Graph

Search for Another Location

Airport or City:

Trip Planner

Search our weather history database for the weather conditions in past years. The results will help you decide how hot, cold, wet, or windy it might be!

Date:

Astronomy

Jan. 05, 2014 Rise Set
Actual Time 7:47 AM PST 4:49 PM PST
Civil Twilight 7:15 AM PST 5:21 PM PST
Nautical Twilight 6:38 AM PST 5:58 PM PST
Astronomical Twilight 6:03 AM PST 6:33 PM PST
Moon 10:21 AM PST (1/5) 10:36 PM PST (1/5)
Length of Visible Light 10h 06m
Length of Day
9h 01m
Waxing Crescent, 25% of the Moon is Illuminated
Jan 5
Waxing Crescent
Jan 7
First Quarter
Jan 15
Full
Jan 23
Last Quarter
Jan 30
New

Hourly Weather History & Observations

Time (PST) Temp. Windchill Dew Point Humidity Pressure Visibility Wind Dir Wind Speed Gust Speed Precip Events Conditions
12:54 AM 30.0 °F 26.5 °F 30.0 °F 100% 30.40 in 0.2 mi SSW 3.5 mph - N/A Fog Light Freezing Fog
1:54 AM 30.0 °F - 28.0 °F 92% 30.40 in 0.2 mi Calm Calm - N/A Fog Light Freezing Fog
2:54 AM 30.0 °F - 28.0 °F 92% 30.42 in 0.2 mi Calm Calm - N/A Fog Light Freezing Fog
3:54 AM 30.0 °F - 28.0 °F 92% 30.41 in 0.2 mi Calm Calm - N/A Fog Light Freezing Fog
4:54 AM 28.9 °F - 27.0 °F 92% 30.41 in 0.2 mi Calm Calm - N/A Fog Light Freezing Fog
5:54 AM 28.9 °F - 27.0 °F 92% 30.41 in 0.1 mi Calm Calm - N/A Fog Light Freezing Fog
6:54 AM 28.0 °F 24.2 °F 26.1 °F 92% 30.41 in 0.1 mi North 3.5 mph - 0.00 in Fog Light Freezing Fog
7:32 AM 28.0 °F - 25.0 °F 88% 30.39 in 0.1 mi Calm Calm - N/A Fog Light Freezing Fog
7:42 AM 28.0 °F - 25.0 °F 88% 30.39 in 0.1 mi Calm Calm - N/A Fog Light Freezing Fog
7:54 AM 28.0 °F - 25.0 °F 88% 30.41 in 0.1 mi Calm Calm - N/A Fog Light Freezing Fog
8:54 AM 28.0 °F - 25.0 °F 88% 30.42 in 0.1 mi Calm Calm - N/A Fog Light Freezing Fog
9:54 AM 30.0 °F - 27.0 °F 88% 30.43 in 0.1 mi Calm Calm - N/A Fog Light Freezing Fog
10:54 AM 30.9 °F - 28.0 °F 89% 30.42 in 0.1 mi Calm Calm - N/A Fog Light Freezing Fog
11:14 AM 30.9 °F 27.5 °F 28.0 °F 89% 30.39 in 0.1 mi NNE 3.5 mph - N/A Fog Light Freezing Fog
11:33 AM 32.0 °F 27.5 °F 28.0 °F 85% 30.39 in 0.5 mi North 4.6 mph - N/A Fog Fog
11:54 AM 33.1 °F 28.7 °F 30.0 °F 89% 30.39 in 0.8 mi NE 4.6 mph - N/A   Mist
12:08 PM 34.0 °F 28.8 °F 30.9 °F 89% 30.37 in 2.5 mi NE 5.8 mph - N/A   Overcast
12:22 PM 34.0 °F 26.6 °F 30.9 °F 89% 30.36 in 3.0 mi NNE 9.2 mph - 0.00 in   Mostly Cloudy
12:34 PM 34.0 °F 26.6 °F 30.9 °F 89% 30.35 in 5.0 mi NNE 9.2 mph - 0.00 in   Mostly Cloudy
12:45 PM 34.0 °F 27.2 °F 30.9 °F 89% 30.35 in 5.0 mi NNE 8.1 mph - 0.00 in   Scattered Clouds
12:54 PM 34.0 °F 27.2 °F 30.9 °F 89% 30.35 in 5.0 mi NE 8.1 mph - 0.00 in   Scattered Clouds
1:54 PM 36.0 °F 30.3 °F 32.0 °F 86% 30.33 in 5.0 mi NE 6.9 mph - N/A   Partly Cloudy
2:54 PM 37.0 °F - 33.1 °F 86% 30.31 in 9.0 mi Calm Calm - N/A   Clear
3:54 PM 37.9 °F - 33.1 °F 83% 30.30 in 10.0 mi Calm Calm - N/A   Clear
4:54 PM 36.0 °F 33.3 °F 30.9 °F 82% 30.29 in 10.0 mi South 3.5 mph - N/A   Partly Cloudy
5:54 PM 33.1 °F 30.0 °F 30.9 °F 92% 30.28 in 9.0 mi South 3.5 mph - N/A   Partly Cloudy
6:54 PM 30.0 °F 25.2 °F 28.0 °F 92% 30.28 in 7.0 mi SSE 4.6 mph - N/A Fog Shallow Fog
7:54 PM 28.9 °F 23.9 °F 27.0 °F 92% 30.28 in 6.0 mi South 4.6 mph - N/A   Partly Cloudy
8:54 PM 28.9 °F 23.9 °F 27.0 °F 92% 30.28 in 4.0 mi SSW 4.6 mph - N/A   Clear
9:08 PM 28.0 °F 24.2 °F 27.0 °F 96% 30.27 in 2.5 mi SSW 3.5 mph - N/A   Scattered Clouds
9:37 PM 27.0 °F 23.0 °F 25.0 °F 92% 30.27 in 3.0 mi South 3.5 mph - N/A   Scattered Clouds
9:54 PM 27.0 °F 21.6 °F 26.1 °F 96% 30.28 in 4.0 mi South 4.6 mph - N/A   Scattered Clouds
10:54 PM 26.1 °F 20.5 °F 25.0 °F 96% 30.28 in 3.0 mi WSW 4.6 mph - N/A   Scattered Clouds
11:54 PM 25.0 °F 20.7 °F 23.0 °F 92% 30.27 in 5.0 mi ESE 3.5 mph - N/A   Clear